[[{"header":{"parameterUnit":"m.s-1","parameterCategory":1,"la1":30.2991,"la2":30.254,"lo1":-89.0895,"lo2":-89.0444,"dy":0.0017,"dx":0.0017,"nx":28,"ny":28,"refTime":"2025-01-23T09:00:00:Z","depth":0,"parameterNumber":2,"parameterNumberName":"U-component_of_WINDS"},"data":[0,0,0,0,0,0,0,0,0,0,0,0,0,0,0,0,0,0,0,0,0,0,0,0,0,0,0,0,0,0,0,0,0,0,0,0,0,0,0,0,0,0,0,0,0,0,0,0,0,0,0,0,0,0,0,0,0,0,1.2939,1.2939,0,1.2938,1.2938,1.2938,1.2933,1.2932,1.2932,1.2932,1.2931,1.2931,1.2931,0,0,0,0,0,0,0,0,0,0,0,0,0,1.2935,1.2935,1.2939,1.2939,1.2939,1.2938,1.2938,1.2938,1.2933,1.2932,1.2932,1.2932,1.2931,1.2931,1.2931,0,0,0,0,0,0,0,0,0,0,0,0,0,1.2935,1.2935,1.2939,1.2936,1.2936,1.2938,1.2938,1.2938,1.2933,1.2932,1.2932,1.2932,1.2931,1.2931,1.2931,1.2936,0,0,1.2931,1.2931,0,0,0,0,0,0,0,0,1.2935,1.2936,1.2937,1.2936,1.2936,1.2935,1.2936,1.2937,1.2933,1.2934,1.2932,1.2932,1.2932,1.2932,1.2933,1.2935,1.2935,1.2931,1.2931,1.2931,1.2931,0,0,0,0,0,0,0,1.2935,1.2936,1.2939,1.2937,1.2936,1.2934,1.2934,1.2936,1.2934,1.2934,1.2933,1.2933,1.2932,1.2932,1.2932,1.2935,1.2931,1.2931,1.2931,1.2931,1.2941,1.2941,0,0,0,0,0,0,1.2936,1.2936,1.2939,1.2939,1.2935,1.2935,1.2935,1.2936,1.2934,1.2934,1.2934,1.2933,1.2932,1.2932,1.2932,1.2937,1.2931,1.2931,1.2932,1.2941,1.2941,1.2941,0,0,0,0,0,0,1.2936,1.2936,1.2939,1.2937,1.2937,1.2935,1.2936,1.2936,1.2936,1.2934,1.2933,1.2934,1.2932,1.2932,1.2935,1.2937,1.2931,1.2932,1.2941,1.2941,1.2941,1.2947,0,0,0,0,0,0,1.2936,1.2936,1.2938,1.2937,1.2937,1.2941,1.2936,1.2936,1.2936,1.2936,1.2935,1.2934,1.2932,1.2934,1.2935,1.2937,1.2932,1.294,1.2941,1.2941,1.2947,1.2947,1.2948,0,0,0,0,0,1.2936,1.294,1.2938,1.2939,1.294,1.2941,1.2942,1.2939,1.2937,1.2938,1.2937,1.2934,1.2937,1.2935,1.2935,1.2937,1.294,1.2941,1.2941,1.2946,1.2947,1.2948,0,0,0,0,0,0,1.2941,1.294,1.2938,1.2942,1.2942,1.2941,1.2943,1.294,1.2941,1.294,1.2937,1.2937,1.294,1.2939,1.2937,1.2941,1.2938,1.2938,1.2942,1.2943,1.2944,1.2943,1.2932,0,0,0,0,0,1.2943,1.2945,1.2943,1.2947,1.2947,1.2945,1.2946,1.2944,1.2943,1.2943,1.2942,1.2941,1.2942,1.2942,1.2943,1.2947,1.2946,1.2948,1.2949,1.295,1.295,1.2951,1.2952,1.2943,1.2943,1.2943,0,0,1.2947,1.2946,1.2948,1.2948,1.2948,1.2949,1.2945,1.2947,1.2948,1.2943,1.2945,1.2944,1.2944,1.2946,1.2948,1.2946,1.2952,1.295,1.2951,1.2951,1.2952,1.2952,1.2953,1.2943,1.2943,1.2943,0,0,1.2954,1.2954,1.2957,1.2957,1.2956,1.2955,1.2955,1.2954,1.2953,1.2955,1.2952,1.2953,1.2954,1.2953,1.2953,1.2959,1.2957,1.296,1.2964,1.2965,1.2965,1.2966,1.2968,1.2968,1.296,1.296,1.296,0,1.2959,1.2961,1.2959,1.2961,1.2961,1.2957,1.2959,1.2959,1.2959,1.2959,1.2957,1.2958,1.2957,1.2959,1.2961,1.2961,1.2961,1.296,1.2966,1.2966,1.2967,1.2968,1.2969,1.296,1.296,1.296,1.296,0,1.2966,1.2968,1.297,1.297,1.297,1.2973,1.297,1.2971,1.2969,1.2967,1.2969,1.2968,1.2967,1.2968,1.2966,1.297,1.2969,1.2966,1.2963,1.2968,1.2969,1.297,1.2961,1.2961,1.2961,1.296,0,0,1.2978,1.2976,1.2976,1.2976,1.2975,1.2976,1.2977,1.2977,1.2977,1.2977,1.2978,1.2979,1.2977,1.2976,1.2974,1.2975,1.298,1.2973,1.2973,1.2974,1.2983,1.2984,1.2985,1.2978,1.2978,1.2978,1.2983,0,1.2984,1.2987,1.2985,1.2988,1.2989,1.2985,1.2986,1.2986,1.2984,1.2984,1.2983,1.2983,1.298,1.298,1.2981,1.2979,1.2981,1.2979,1.2978,1.2978,1.2978,1.2986,1.2987,1.2992,1.2983,1.2983,1.2983,0,1.2992,1.2992,1.2995,1.2993,1.2994,1.2995,1.2994,1.2995,1.2994,1.2992,1.2992,1.2989,1.299,1.2987,1.2988,1.2986,1.2986,1.2985,1.2985,1.2984,1.2981,1.2985,1.2993,1.2994,1.2984,1.2984,1.2984,0,1.2999,1.3,1.3002,1.3001,1.2999,1.3,1.2999,1.2998,1.2998,1.2997,1.2997,1.2996,1.2996,1.2995,1.2993,1.2991,1.2994,1.299,1.2992,1.2992,1.2993,1.2993,1.3,1.2993,1.2993,1.2993,1.2993,0,1.3006,1.3008,1.3004,1.3006,1.3007,1.3005,1.3006,1.3005,1.3004,1.3004,1.3001,1.3001,1.2998,1.2998,1.2996,1.2996,1.2996,1.2995,1.2994,1.2995,1.2995,1.2994,1.2994,1.2993,1.2993,1.2993,1.2993,0,1.3014,1.3012,1.3013,1.3011,1.3011,1.3012,1.301,1.3011,1.3009,1.3009,1.3009,1.3006,1.3006,1.3003,1.3002,1.3001,1.3002,1.3001,1.3003,1.3002,1.3004,1.3003,1.3011,1.3012,1.3005,1.3005,1.3005,0,1.3018,1.302,1.3018,1.3018,1.3017,1.3017,1.3017,1.3014,1.3014,1.3012,1.3013,1.3012,1.3012,1.3011,1.3009,1.3008,1.3006,1.3009,1.3006,1.3007,1.3006,1.3006,1.3005,1.301,1.301,1.301,1.301,0,1.3026,1.3025,1.3025,1.3024,1.3024,1.3024,1.3023,1.3023,1.302,1.3019,1.3019,1.3019,1.3017,1.3017,1.3015,1.3014,1.3011,1.3011,1.3011,1.3012,1.3012,1.3011,1.3004,1.3011,1.3011,1.3011,1.3011,1.3011,1.3032,1.3033,1.3031,1.3031,1.303,1.3029,1.303,1.3028,1.3028,1.3027,1.3025,1.3025,1.3023,1.3021,1.3019,1.3019,1.3017,1.3018,1.3018,1.3018,1.3018,1.3013,1.3019,1.3019,1.3019,1.3019,1.3018,0,1.3039,1.3038,1.3038,1.3037,1.3036,1.3034,1.3033,1.3033,1.3033,1.3031,1.3031,1.303,1.3029,1.3026,1.3025,1.3025,1.3024,1.3025,1.3025,1.3024,1.302,1.3019,1.3026,1.3026,1.3026,1.3026,1.3026,1.3026,1.3043,1.3044,1.3042,1.3043,1.3041,1.3041,1.3041,1.304,1.3038,1.3038,1.3037,1.3036,1.3033,1.3032,1.3031,1.303,1.303,1.3031,1.303,1.3025,1.3025,1.3024,1.3024,1.3031,1.3031,1.3034,1.3034,1.3034]},{"header":{"parameterUnit":"m.s-1","parameterCategory":1,"la1":30.2991,"la2":30.254,"lo1":-89.0895,"lo2":-89.0444,"dy":0.0017,"dx":0.0017,"nx":28,"ny":28,"refTime":"2025-01-23T09:00:00:Z","depth":0,"parameterNumber":3,"parameterNumberName":"V-component_of_WINDS"},"data":[0,0,0,0,0,0,0,0,0,0,0,0,0,0,0,0,0,0,0,0,0,0,0,0,0,0,0,0,0,0,0,0,0,0,0,0,0,0,0,0,0,0,0,0,0,0,0,0,0,0,0,0,0,0,0,0,0,0,-2.1293,-2.1293,0,-2.1356,-2.1356,-2.1357,-2.1325,-2.1323,-2.1321,-2.132,-2.1386,-2.139,-2.1393,0,0,0,0,0,0,0,0,0,0,0,0,0,-2.1146,-2.1149,-2.1293,-2.1293,-2.1294,-2.1356,-2.1356,-2.1357,-2.1325,-2.1323,-2.1321,-2.1319,-2.1385,-2.1389,-2.1393,0,0,0,0,0,0,0,0,0,0,0,0,0,-2.121,-2.115,-2.1292,-2.1285,-2.1285,-2.1355,-2.1357,-2.1358,-2.1325,-2.1323,-2.132,-2.1318,-2.1384,-2.1389,-2.1394,-2.1475,0,0,-2.1409,-2.1411,0,0,0,0,0,0,0,0,-2.1206,-2.1215,-2.1286,-2.1286,-2.1286,-2.133,-2.1329,-2.1397,-2.1326,-2.131,-2.132,-2.1317,-2.137,-2.1376,-2.1393,-2.1478,-2.1481,-2.1409,-2.1412,-2.1415,-2.1416,0,0,0,0,0,0,0,-2.1202,-2.1212,-2.1318,-2.1287,-2.1287,-2.128,-2.1286,-2.1342,-2.1353,-2.1311,-2.1309,-2.1317,-2.1369,-2.1388,-2.1394,-2.1482,-2.1409,-2.1414,-2.1417,-2.1419,-2.1638,-2.1641,0,0,0,0,0,0,-2.1197,-2.1209,-2.1316,-2.1319,-2.1239,-2.1284,-2.1291,-2.1318,-2.1353,-2.1355,-2.1319,-2.1315,-2.1381,-2.1389,-2.1397,-2.1495,-2.1415,-2.1419,-2.1422,-2.1635,-2.1639,-2.1642,0,0,0,0,0,0,-2.1194,-2.1207,-2.1313,-2.1263,-2.1276,-2.129,-2.132,-2.1321,-2.134,-2.1358,-2.136,-2.1336,-2.1379,-2.139,-2.1456,-2.1497,-2.1422,-2.1426,-2.1632,-2.1636,-2.164,-2.1691,0,0,0,0,0,0,-2.119,-2.1206,-2.1237,-2.1264,-2.1279,-2.1371,-2.1323,-2.1324,-2.1348,-2.1344,-2.1375,-2.1378,-2.1378,-2.1449,-2.1461,-2.1502,-2.143,-2.1628,-2.1634,-2.1639,-2.1686,-2.1697,-2.1706,0,0,0,0,0,-2.1185,-2.1249,-2.1238,-2.1252,-2.1317,-2.1373,-2.1382,-2.138,-2.1352,-2.1383,-2.1395,-2.1377,-2.149,-2.1456,-2.1469,-2.1513,-2.1626,-2.1632,-2.1638,-2.1682,-2.1695,-2.1706,0,0,0,0,0,0,-2.1226,-2.1252,-2.1241,-2.1316,-2.1342,-2.1367,-2.1407,-2.1394,-2.143,-2.1424,-2.1421,-2.1428,-2.1497,-2.1512,-2.1473,-2.1594,-2.1554,-2.1563,-2.1582,-2.1594,-2.1604,-2.1599,-2.1434,0,0,0,0,0,-2.1244,-2.1286,-2.1307,-2.1371,-2.1385,-2.1394,-2.1418,-2.1414,-2.1442,-2.1453,-2.147,-2.1498,-2.154,-2.1568,-2.1608,-2.1688,-2.1695,-2.1724,-2.1734,-2.1742,-2.1751,-2.1795,-2.1809,-2.1663,-2.1662,-2.1662,0,0,-2.1281,-2.1301,-2.1328,-2.138,-2.14,-2.1445,-2.1403,-2.1452,-2.1485,-2.1461,-2.1524,-2.1538,-2.1569,-2.1643,-2.1676,-2.1657,-2.1793,-2.175,-2.1757,-2.1761,-2.1803,-2.1817,-2.1829,-2.1667,-2.1666,-2.1665,0,0,-2.1372,-2.139,-2.1446,-2.1467,-2.1498,-2.1503,-2.1517,-2.1544,-2.1552,-2.1616,-2.1598,-2.1638,-2.171,-2.1734,-2.1755,-2.1855,-2.184,-2.1868,-2.192,-2.1963,-2.1975,-2.1985,-2.2021,-2.2034,-2.1876,-2.1876,-2.1876,0,-2.1414,-2.148,-2.1476,-2.1527,-2.155,-2.1529,-2.1586,-2.1607,-2.165,-2.1667,-2.1644,-2.1735,-2.1755,-2.1834,-2.1858,-2.1876,-2.1892,-2.1864,-2.1973,-2.1983,-2.1993,-2.2027,-2.2041,-2.1879,-2.1879,-2.1879,-2.1878,0,-2.1531,-2.1577,-2.1618,-2.1659,-2.1688,-2.1741,-2.1746,-2.1775,-2.177,-2.1778,-2.1843,-2.1866,-2.191,-2.1929,-2.1924,-2.2008,-2.1995,-2.1973,-2.1933,-2.201,-2.2043,-2.2056,-2.1884,-2.1883,-2.1882,-2.1881,0,0,-2.165,-2.1688,-2.1703,-2.1722,-2.1755,-2.1791,-2.1843,-2.1886,-2.1911,-2.1942,-2.1986,-2.2048,-2.2028,-2.2052,-2.205,-2.2088,-2.2166,-2.2061,-2.2062,-2.208,-2.2261,-2.2278,-2.2293,-2.2156,-2.2159,-2.2161,-2.2259,0,-2.1743,-2.1834,-2.1832,-2.1918,-2.196,-2.1942,-2.1988,-2.2013,-2.2022,-2.2061,-2.2071,-2.2115,-2.2085,-2.21,-2.2136,-2.2149,-2.2203,-2.2142,-2.2199,-2.2201,-2.2192,-2.231,-2.2328,-2.2419,-2.2271,-2.2274,-2.2275,0,-2.1864,-2.1897,-2.1987,-2.2014,-2.2032,-2.2073,-2.2112,-2.2149,-2.2178,-2.2182,-2.2209,-2.2201,-2.2255,-2.2213,-2.2289,-2.2248,-2.2271,-2.2281,-2.2284,-2.229,-2.2243,-2.232,-2.2448,-2.2462,-2.2295,-2.2293,-2.2292,0,-2.1942,-2.201,-2.2072,-2.2089,-2.2121,-2.2151,-2.2166,-2.2193,-2.2219,-2.2253,-2.227,-2.2311,-2.2333,-2.2365,-2.2369,-2.2338,-2.2445,-2.2403,-2.2451,-2.2451,-2.2475,-2.2473,-2.261,-2.2489,-2.2489,-2.2488,-2.2488,0,-2.2046,-2.2102,-2.2108,-2.2146,-2.2208,-2.2206,-2.2268,-2.228,-2.2304,-2.2345,-2.2332,-2.2371,-2.2372,-2.2413,-2.2416,-2.2478,-2.2488,-2.2494,-2.2494,-2.2496,-2.2495,-2.2511,-2.2505,-2.2492,-2.2491,-2.2491,-2.249,0,-2.2145,-2.215,-2.2217,-2.2243,-2.225,-2.2295,-2.2317,-2.2355,-2.2362,-2.2415,-2.2427,-2.244,-2.2487,-2.2493,-2.2548,-2.255,-2.2625,-2.2619,-2.2615,-2.2615,-2.2662,-2.2658,-2.2814,-2.2835,-2.27,-2.2701,-2.2702,0,-2.2211,-2.2253,-2.2283,-2.231,-2.2326,-2.2369,-2.2395,-2.2395,-2.2423,-2.2459,-2.2493,-2.2538,-2.2574,-2.265,-2.2665,-2.2707,-2.2702,-2.2754,-2.2708,-2.2708,-2.2704,-2.2701,-2.2706,-2.2763,-2.2764,-2.2765,-2.2766,0,-2.2329,-2.233,-2.2368,-2.2407,-2.2439,-2.247,-2.2499,-2.2522,-2.2525,-2.2558,-2.2605,-2.2633,-2.2689,-2.2735,-2.2777,-2.2793,-2.2781,-2.278,-2.2794,-2.2796,-2.2793,-2.2796,-2.264,-2.2777,-2.2776,-2.2775,-2.2774,-2.2774,-2.2414,-2.2451,-2.2478,-2.2521,-2.2543,-2.2571,-2.2607,-2.2619,-2.2658,-2.2703,-2.2701,-2.2754,-2.2782,-2.2837,-2.2857,-2.2898,-2.2881,-2.2901,-2.2906,-2.2911,-2.2916,-2.2785,-2.2906,-2.2906,-2.2905,-2.2905,-2.2905,0,-2.2532,-2.2548,-2.2588,-2.2629,-2.2663,-2.2647,-2.2679,-2.2709,-2.2755,-2.2783,-2.2818,-2.2874,-2.2918,-2.2936,-2.298,-2.301,-2.3005,-2.3021,-2.302,-2.3024,-2.2928,-2.2912,-2.3024,-2.3024,-2.3024,-2.3024,-2.3024,-2.3024,-2.2597,-2.2659,-2.2663,-2.2736,-2.2752,-2.2803,-2.2823,-2.2849,-2.2871,-2.2932,-2.2969,-2.298,-2.3004,-2.305,-2.309,-2.3094,-2.3111,-2.313,-2.3132,-2.3042,-2.303,-2.3019,-2.3004,-2.3134,-2.3134,-2.3225,-2.3225,-2.3226]}]]